Brunehault, Belgium
Current Conditions -  °F | °C
As of 12:50 AM on Saturday 20 Dec 2014 (Local Time) from EBCI Reporting Station
Clear Clear  
Wind Chill: 32°   Ceiling: Unl
Heat Index: 39°   Visibility: 6mi
Dew Point: 36°   Wind: 10mph
Humidity: 87%   Direction: 240°WSW
Pressure: 30.21"   Gusts: NA
Location:  50.51°N, 4.43°E
Report Text: EBCI 192350Z 24009KT CAVOK 04/02 Q1023 NOSIG
Loading
Personal Weather Stations






























Interactive Weather Map New forecast layout! Learn more

10-Day Weather Forecast

Advertisements
Track Severe Weather on mobile